{"data":{"norad_id":43262,"intl_designator":"2018-031D","name":"GAOFEN-1 04","alt_names":[],"object_type":"PAYLOAD","status":"ACTIVE","operator":null,"country":"PRC","launch_date":"2018-03-31","launch_site_code":"TAISC","launch_vehicle":null,"mission":null,"orbit_class":"UNKNOWN","rcs_meters":null,"size_class":null,"mass_kg":null,"dimensions":null,"purposes":["earth_obs"],"wikipedia_slug":null,"has_3d_model":false,"image_url":null,"decayed_at":null,"tle_current":{"epoch":"2026-09-20T04:46:39.597024Z","epoch_age_seconds":44249,"freshness":"FRESH","line1":"1 43262U 18031D   26263.19906941  .00000293  00000+0  49457-4 0  9994","line2":"2 43262  98.0433 325.4616 0002482  96.6031 263.5461 14.76446542456706","mean_motion":14.76446542,"eccentricity":0.0002482,"inclination_deg":98.0433,"raan_deg":325.4616,"arg_perigee_deg":96.6031,"mean_anomaly_deg":263.5461,"bstar":4.9457e-5,"rev_number":45670,"period_min":97.531468904345,"perigee_km":638.82112367912,"apogee_km":642.30520644106,"semimajor_km":7018.7001650601,"source":"CELESTRAK","updated_at":"2026-09-20T09:00:33.972681Z"}}}